Location: Cran-Gévrier
(45.9039°N, 6.1012°E)
Time: 20:56:56
(UTC+00:00)

CZ-4 DEB - Visible Passes

Search period start: 26 February 2024 00:00
Search period end: 07 March 2024 00:00
Orbit: 690 x 837 km, 98.8° (Epoch: 21 February)

Date Brightness Start Highest point End Pass type
(mag) Time Alt. Az. Time Alt. Az. Time Alt. Az.
26 Feb ? 17:49:51 10° SE 17:54:36 32° ENE 17:59:23 10° N visible
26 Feb ? 19:28:15 10° SSW 19:33:21 41° W 19:38:31 10° NNW visible
27 Feb ? 18:50:37 10° SSE 18:56:03 85° WSW 19:01:34 10° NNW visible
27 Feb ? 20:33:29 10° WSW 20:35:45 12° W 20:38:00 10° WNW visible
28 Feb ? 18:13:46 10° SE 18:18:58 49° ENE 18:24:13 10° N visible
28 Feb ? 19:53:34 10° SSW 19:58:05 26° W 20:02:38 10° NW visible
29 Feb ? 19:15:21 10° S 19:20:39 53° W 19:26:01 10° NNW visible
01 Mar ? 18:37:59 10° SSE 18:43:25 77° ENE 18:48:54 10° NNW visible
01 Mar ? 20:19:31 10° SW 20:22:54 17° W 20:26:17 10° NW visible
02 Mar ? 18:01:24 10° SE 18:06:24 39° ENE 18:11:24 10° N visible
02 Mar ? 19:40:25 10° SSW 19:45:19 34° W 19:50:15 10° NNW visible
03 Mar ? 19:02:32 10° S 19:07:57 69° WSW 19:13:24 10° NNW visible
04 Mar ? 18:25:27 10° SSE 18:30:48 60° ENE 18:36:09 10° N visible
04 Mar ? 20:05:59 10° SW 20:10:03 21° W 20:14:10 10° NW visible
05 Mar ? 17:49:08 10° ESE 17:53:50 31° ENE 17:58:31 10° N visible
05 Mar ? 19:27:23 10° S 19:32:34 43° W 19:37:44 10° NNW visible
06 Mar ? 18:49:48 10° SSE 18:55:16 87° WSW 19:00:43 10° NNW visible
06 Mar ? 20:32:26 10° WSW 20:34:53 13° W 20:37:20 10° WNW visible
